Year,Month,Day,Hour,Minute,Value (Times are PST for temperature in C)
2020,04,12,00,00,6.30
2020,04,12,00,01,6.30
2020,04,12,00,02,6.30
2020,04,12,00,03,6.40
2020,04,12,00,04,6.40
2020,04,12,00,05,6.40
2020,04,12,00,06,6.40
2020,04,12,00,07,6.40
2020,04,12,00,08,6.50
2020,04,12,00,09,6.50
2020,04,12,00,10,6.50
2020,04,12,00,11,6.60
2020,04,12,00,12,6.60
2020,04,12,00,13,6.60
2020,04,12,00,14,6.70
2020,04,12,00,15,6.70
2020,04,12,00,16,6.70
2020,04,12,00,17,6.70
2020,04,12,00,18,6.70
2020,04,12,00,19,6.70
2020,04,12,00,20,6.70
2020,04,12,00,21,6.70
2020,04,12,00,22,6.70
2020,04,12,00,23,6.60
2020,04,12,00,24,6.60
2020,04,12,00,25,6.50
2020,04,12,00,26,6.40
2020,04,12,00,27,6.40
2020,04,12,00,28,6.30
2020,04,12,00,29,6.30
2020,04,12,00,30,6.20
2020,04,12,00,31,6.20
2020,04,12,00,32,6.20
2020,04,12,00,33,6.10
2020,04,12,00,34,6.10
2020,04,12,00,35,6.10
2020,04,12,00,36,6.00
2020,04,12,00,37,5.90
2020,04,12,00,38,5.90
2020,04,12,00,39,5.90
2020,04,12,00,40,5.90
2020,04,12,00,41,5.80
2020,04,12,00,42,5.80
2020,04,12,00,43,5.80
2020,04,12,00,44,5.80
2020,04,12,00,45,5.80
2020,04,12,00,46,5.70
2020,04,12,00,47,5.80
2020,04,12,00,48,5.80
2020,04,12,00,49,5.80
2020,04,12,00,50,5.80
2020,04,12,00,51,5.80
2020,04,12,00,52,5.80
2020,04,12,00,53,5.90
2020,04,12,00,54,5.90
2020,04,12,00,55,5.90
2020,04,12,00,56,5.80
2020,04,12,00,57,5.80
2020,04,12,00,58,5.80
2020,04,12,00,59,5.70
2020,04,12,01,00,5.70
2020,04,12,01,01,5.80
2020,04,12,01,02,5.90
2020,04,12,01,03,6.00
2020,04,12,01,04,6.10
2020,04,12,01,05,6.10
2020,04,12,01,06,6.30
2020,04,12,01,07,6.50
2020,04,12,01,08,6.70
2020,04,12,01,09,6.80
2020,04,12,01,10,6.90
2020,04,12,01,11,7.00
2020,04,12,01,12,7.20
2020,04,12,01,13,7.40
2020,04,12,01,14,7.50
2020,04,12,01,15,7.60
2020,04,12,01,16,7.60
2020,04,12,01,17,7.60
2020,04,12,01,18,7.50
2020,04,12,01,19,7.50
2020,04,12,01,20,7.40
2020,04,12,01,21,7.40
2020,04,12,01,22,7.40
2020,04,12,01,23,7.50
2020,04,12,01,24,7.50
2020,04,12,01,25,7.50
2020,04,12,01,26,7.50
2020,04,12,01,27,7.50
2020,04,12,01,28,7.40
2020,04,12,01,29,7.40
2020,04,12,01,30,7.30
2020,04,12,01,31,7.30
2020,04,12,01,32,7.30
2020,04,12,01,33,7.30
2020,04,12,01,34,7.30
2020,04,12,01,35,7.30
2020,04,12,01,36,7.30
2020,04,12,01,37,7.30
2020,04,12,01,38,7.30
2020,04,12,01,39,7.30
2020,04,12,01,40,7.30
2020,04,12,01,41,7.20
2020,04,12,01,42,7.20
2020,04,12,01,43,7.10
2020,04,12,01,44,7.10
2020,04,12,01,45,7.10
2020,04,12,01,46,7.00
2020,04,12,01,47,7.00
2020,04,12,01,48,7.00
2020,04,12,01,49,7.00
2020,04,12,01,50,6.90
2020,04,12,01,51,6.90
2020,04,12,01,52,6.90
2020,04,12,01,53,6.90
2020,04,12,01,54,6.80
2020,04,12,01,55,6.80
2020,04,12,01,56,6.80
2020,04,12,01,57,6.80
2020,04,12,01,58,6.80
2020,04,12,01,59,6.70
2020,04,12,02,00,6.70
2020,04,12,02,01,6.70
2020,04,12,02,02,6.70
2020,04,12,02,03,6.70
2020,04,12,02,04,6.70
2020,04,12,02,05,6.70
2020,04,12,02,06,6.70
2020,04,12,02,07,6.70
2020,04,12,02,08,6.70
2020,04,12,02,09,6.70
2020,04,12,02,10,6.70
2020,04,12,02,11,6.70
2020,04,12,02,12,6.70
2020,04,12,02,13,6.70
2020,04,12,02,14,6.70
2020,04,12,02,15,6.60
2020,04,12,02,16,6.60
2020,04,12,02,17,6.60
2020,04,12,02,18,6.50
2020,04,12,02,19,6.50
2020,04,12,02,20,6.50
2020,04,12,02,21,6.40
2020,04,12,02,22,6.40
2020,04,12,02,23,6.30
2020,04,12,02,24,6.30
2020,04,12,02,25,6.30
2020,04,12,02,26,6.20
2020,04,12,02,27,6.20
2020,04,12,02,28,6.20
2020,04,12,02,29,6.10
2020,04,12,02,30,6.10
2020,04,12,02,31,6.10
2020,04,12,02,32,6.10
2020,04,12,02,33,6.10
2020,04,12,02,34,6.10
2020,04,12,02,35,6.00
2020,04,12,02,36,6.00
2020,04,12,02,37,6.00
2020,04,12,02,38,5.90
2020,04,12,02,39,5.90
2020,04,12,02,40,5.90
2020,04,12,02,41,5.80
2020,04,12,02,42,5.80
2020,04,12,02,43,5.70
2020,04,12,02,44,5.60
2020,04,12,02,45,5.60
2020,04,12,02,46,5.50
2020,04,12,02,47,5.50
2020,04,12,02,48,5.40
2020,04,12,02,49,5.40
2020,04,12,02,50,5.30
2020,04,12,02,51,5.30
2020,04,12,02,52,5.30
2020,04,12,02,53,5.20
2020,04,12,02,54,5.20
2020,04,12,02,55,5.20
2020,04,12,02,56,5.10
2020,04,12,02,57,5.10
2020,04,12,02,58,5.00
2020,04,12,02,59,5.00
2020,04,12,03,00,4.90
2020,04,12,03,01,4.90
2020,04,12,03,02,4.80
2020,04,12,03,03,4.80
2020,04,12,03,04,4.80
2020,04,12,03,05,4.80
2020,04,12,03,06,4.70
2020,04,12,03,07,4.70
2020,04,12,03,08,4.70
2020,04,12,03,09,4.80
2020,04,12,03,10,4.80
2020,04,12,03,11,4.80
2020,04,12,03,12,4.90
2020,04,12,03,13,5.00
2020,04,12,03,14,5.00
2020,04,12,03,15,5.10
2020,04,12,03,16,5.10
2020,04,12,03,17,5.10
2020,04,12,03,18,5.10
2020,04,12,03,19,5.20
2020,04,12,03,20,5.20
2020,04,12,03,21,5.20
2020,04,12,03,22,5.20
2020,04,12,03,23,5.20
2020,04,12,03,24,5.20
2020,04,12,03,25,5.20
2020,04,12,03,26,5.20
2020,04,12,03,27,5.20
2020,04,12,03,28,5.30
2020,04,12,03,29,5.30
2020,04,12,03,30,5.20
2020,04,12,03,31,5.20
2020,04,12,03,32,5.20
2020,04,12,03,33,5.20
2020,04,12,03,34,5.20
2020,04,12,03,35,5.20
2020,04,12,03,36,5.20
2020,04,12,03,37,5.20
2020,04,12,03,38,5.10
2020,04,12,03,39,5.10
2020,04,12,03,40,5.10
2020,04,12,03,41,5.10
2020,04,12,03,42,5.00
2020,04,12,03,43,5.00
2020,04,12,03,44,5.00
2020,04,12,03,45,5.00
2020,04,12,03,46,5.00
2020,04,12,03,47,5.00
2020,04,12,03,48,5.00
2020,04,12,03,49,5.00
2020,04,12,03,50,5.00
2020,04,12,03,51,5.00
2020,04,12,03,52,5.00
2020,04,12,03,53,5.00
2020,04,12,03,54,4.90
2020,04,12,03,55,4.90
2020,04,12,03,56,4.90
2020,04,12,03,57,4.90
2020,04,12,03,58,5.00
2020,04,12,03,59,4.90
2020,04,12,04,00,4.90
2020,04,12,04,01,4.90
2020,04,12,04,02,4.90
2020,04,12,04,03,4.90
2020,04,12,04,04,4.90
2020,04,12,04,05,4.90
2020,04,12,04,06,4.90
2020,04,12,04,07,4.90
2020,04,12,04,08,4.90
2020,04,12,04,09,4.90
2020,04,12,04,10,4.90
2020,04,12,04,11,4.80
2020,04,12,04,12,4.80
2020,04,12,04,13,4.80
2020,04,12,04,14,4.80
2020,04,12,04,15,4.80
2020,04,12,04,16,4.80
2020,04,12,04,17,4.80
2020,04,12,04,18,4.80
2020,04,12,04,19,4.80
2020,04,12,04,20,4.70
2020,04,12,04,21,4.70
2020,04,12,04,22,4.70
2020,04,12,04,23,4.70
2020,04,12,04,24,4.70
2020,04,12,04,25,4.70
2020,04,12,04,26,4.60
2020,04,12,04,27,4.60
2020,04,12,04,28,4.60
2020,04,12,04,29,4.60
2020,04,12,04,30,4.60
2020,04,12,04,31,4.60
2020,04,12,04,32,4.60
2020,04,12,04,33,4.60
2020,04,12,04,34,4.60
2020,04,12,04,35,4.60
2020,04,12,04,36,4.60
2020,04,12,04,37,4.60
2020,04,12,04,38,4.60
2020,04,12,04,39,4.60
2020,04,12,04,40,4.60
2020,04,12,04,41,4.60
2020,04,12,04,42,4.60
2020,04,12,04,43,4.60
2020,04,12,04,44,4.60
2020,04,12,04,45,4.60
2020,04,12,04,46,4.60
2020,04,12,04,47,4.60
2020,04,12,04,48,4.50
2020,04,12,04,49,4.50
2020,04,12,04,50,4.50
2020,04,12,04,51,4.50
2020,04,12,04,52,4.50
2020,04,12,04,53,4.50
2020,04,12,04,54,4.50
2020,04,12,04,55,4.40
2020,04,12,04,56,4.40
2020,04,12,04,57,4.40
2020,04,12,04,58,4.40
2020,04,12,04,59,4.30
2020,04,12,05,00,4.30
2020,04,12,05,01,4.30
2020,04,12,05,02,4.30
2020,04,12,05,03,4.30
2020,04,12,05,04,4.20
2020,04,12,05,05,4.20
2020,04,12,05,06,4.20
2020,04,12,05,07,4.20
2020,04,12,05,08,4.10
2020,04,12,05,09,4.10
2020,04,12,05,10,4.10
2020,04,12,05,11,4.10
2020,04,12,05,12,4.10
2020,04,12,05,13,4.10
2020,04,12,05,14,4.10
2020,04,12,05,15,4.10
2020,04,12,05,16,4.10
2020,04,12,05,17,4.10
2020,04,12,05,18,4.00
2020,04,12,05,19,4.00
2020,04,12,05,20,4.00
2020,04,12,05,21,3.90
2020,04,12,05,22,3.90
2020,04,12,05,23,3.90
2020,04,12,05,24,3.80
2020,04,12,05,25,3.80
2020,04,12,05,26,3.80
2020,04,12,05,27,3.80
2020,04,12,05,28,3.70
2020,04,12,05,29,3.70
2020,04,12,05,30,3.70
2020,04,12,05,31,3.70
2020,04,12,05,32,3.60
2020,04,12,05,33,3.60
2020,04,12,05,34,3.60
2020,04,12,05,35,3.60
2020,04,12,05,36,3.60
2020,04,12,05,37,3.50
2020,04,12,05,38,3.50
2020,04,12,05,39,3.50
2020,04,12,05,40,3.40
2020,04,12,05,41,3.40
2020,04,12,05,42,3.40
2020,04,12,05,43,3.40
2020,04,12,05,44,3.40
2020,04,12,05,45,3.40
2020,04,12,05,46,3.30
2020,04,12,05,47,3.30
2020,04,12,05,48,3.30
2020,04,12,05,49,3.30
2020,04,12,05,50,3.30
2020,04,12,05,51,3.30
2020,04,12,05,52,3.20
2020,04,12,05,53,3.20
2020,04,12,05,54,3.20
2020,04,12,05,55,3.20
2020,04,12,05,56,3.20
2020,04,12,05,57,3.20
2020,04,12,05,58,3.20
2020,04,12,05,59,3.20
2020,04,12,06,00,3.30
2020,04,12,06,01,3.30
2020,04,12,06,02,3.30
2020,04,12,06,03,3.30
2020,04,12,06,04,3.30
2020,04,12,06,05,3.20
2020,04,12,06,06,3.20
2020,04,12,06,07,3.20
2020,04,12,06,08,3.20
2020,04,12,06,09,3.20
2020,04,12,06,10,3.20
2020,04,12,06,11,3.10
2020,04,12,06,12,3.10
2020,04,12,06,13,3.10
2020,04,12,06,14,3.10
2020,04,12,06,15,3.10
2020,04,12,06,16,3.10
2020,04,12,06,17,3.10
2020,04,12,06,18,3.10
2020,04,12,06,19,3.10
2020,04,12,06,20,3.10
2020,04,12,06,21,3.00
2020,04,12,06,22,3.00
2020,04,12,06,23,3.00
2020,04,12,06,24,3.00
2020,04,12,06,25,3.00
2020,04,12,06,26,3.00
2020,04,12,06,27,2.90
2020,04,12,06,28,2.90
2020,04,12,06,29,2.90
2020,04,12,06,30,2.90
2020,04,12,06,31,2.90
2020,04,12,06,32,2.90
2020,04,12,06,33,2.90
2020,04,12,06,34,2.80
2020,04,12,06,35,2.80
2020,04,12,06,36,2.80
2020,04,12,06,37,2.80
2020,04,12,06,38,2.70
2020,04,12,06,39,2.70
2020,04,12,06,40,2.70
2020,04,12,06,41,2.70
2020,04,12,06,42,2.70
2020,04,12,06,43,2.60
2020,04,12,06,44,2.60
2020,04,12,06,45,2.60
2020,04,12,06,46,2.50
2020,04,12,06,47,2.50
2020,04,12,06,48,2.50
2020,04,12,06,49,2.50
2020,04,12,06,50,2.40
2020,04,12,06,51,2.40
2020,04,12,06,52,2.40
2020,04,12,06,53,2.40
2020,04,12,06,54,2.40
2020,04,12,06,55,2.40
2020,04,12,06,56,2.40
2020,04,12,06,57,2.40
2020,04,12,06,58,2.40
2020,04,12,06,59,2.40
2020,04,12,07,00,2.40
2020,04,12,07,01,2.40
2020,04,12,07,02,2.40
2020,04,12,07,03,2.40
2020,04,12,07,04,2.40
2020,04,12,07,05,2.40
2020,04,12,07,06,2.40
2020,04,12,07,07,2.40
2020,04,12,07,08,2.40
2020,04,12,07,09,2.40
2020,04,12,07,10,2.40
2020,04,12,07,11,2.40
2020,04,12,07,12,2.40
2020,04,12,07,13,2.40
2020,04,12,07,14,2.40
2020,04,12,07,15,2.50
2020,04,12,07,16,2.50
2020,04,12,07,17,2.50
2020,04,12,07,18,2.60
2020,04,12,07,19,2.60
2020,04,12,07,20,2.60
2020,04,12,07,21,2.60
2020,04,12,07,22,2.60
2020,04,12,07,23,2.70
2020,04,12,07,24,2.70
2020,04,12,07,25,2.70
2020,04,12,07,26,2.70
2020,04,12,07,27,2.80
2020,04,12,07,28,2.80
2020,04,12,07,29,2.80
2020,04,12,07,30,2.90
2020,04,12,07,31,2.90
2020,04,12,07,32,2.90
2020,04,12,07,33,3.00
2020,04,12,07,34,3.00
2020,04,12,07,35,3.00
2020,04,12,07,36,3.10
2020,04,12,07,37,3.10
2020,04,12,07,38,3.10
2020,04,12,07,39,3.10
2020,04,12,07,40,3.10
2020,04,12,07,41,3.20
2020,04,12,07,42,3.20
2020,04,12,07,43,3.20
2020,04,12,07,44,3.30
2020,04,12,07,45,3.30
2020,04,12,07,46,3.30
2020,04,12,07,47,3.40
2020,04,12,07,48,3.50
2020,04,12,07,49,3.60
2020,04,12,07,50,3.60
2020,04,12,07,51,3.60
2020,04,12,07,52,3.70
2020,04,12,07,53,3.70
2020,04,12,07,54,3.80
2020,04,12,07,55,3.80
2020,04,12,07,56,3.90
2020,04,12,07,57,4.10
2020,04,12,07,58,4.10
2020,04,12,07,59,4.20
2020,04,12,08,00,4.30
2020,04,12,08,01,4.40
2020,04,12,08,02,4.50
2020,04,12,08,03,4.60
2020,04,12,08,04,4.70
2020,04,12,08,05,4.80
2020,04,12,08,06,4.80
2020,04,12,08,07,4.90
2020,04,12,08,08,5.00
2020,04,12,08,09,5.00
2020,04,12,08,10,5.10
2020,04,12,08,11,5.10
2020,04,12,08,12,5.10
2020,04,12,08,13,5.10
2020,04,12,08,14,5.10
2020,04,12,08,15,5.10
2020,04,12,08,16,5.10
2020,04,12,08,17,5.10
2020,04,12,08,18,5.10
2020,04,12,08,19,5.10
2020,04,12,08,20,5.20
2020,04,12,08,21,5.20
2020,04,12,08,22,5.20
2020,04,12,08,23,5.20
2020,04,12,08,24,5.20
2020,04,12,08,25,5.20
2020,04,12,08,26,5.20
2020,04,12,08,27,5.30
2020,04,12,08,28,5.30
2020,04,12,08,29,5.40
2020,04,12,08,30,5.60
2020,04,12,08,31,5.70
2020,04,12,08,32,5.90
2020,04,12,08,33,6.10
2020,04,12,08,34,6.20
2020,04,12,08,35,6.40
2020,04,12,08,36,6.50
2020,04,12,08,37,6.60
2020,04,12,08,38,6.80
2020,04,12,08,39,6.80
2020,04,12,08,40,7.00
2020,04,12,08,41,7.10
2020,04,12,08,42,7.10
2020,04,12,08,43,7.20
2020,04,12,08,44,7.30
2020,04,12,08,45,7.40
2020,04,12,08,46,7.50
2020,04,12,08,47,7.60
2020,04,12,08,48,7.70
2020,04,12,08,49,7.70
2020,04,12,08,50,7.80
2020,04,12,08,51,7.90
2020,04,12,08,52,8.00
2020,04,12,08,53,8.00
2020,04,12,08,54,8.10
2020,04,12,08,55,8.10
2020,04,12,08,56,8.10
2020,04,12,08,57,8.20
2020,04,12,08,58,8.20
2020,04,12,08,59,8.30
2020,04,12,09,00,8.30
2020,04,12,09,01,8.40
2020,04,12,09,02,8.40
2020,04,12,09,03,8.40
2020,04,12,09,04,8.50
2020,04,12,09,05,8.50
2020,04,12,09,06,8.50
2020,04,12,09,07,8.50
2020,04,12,09,08,8.50
2020,04,12,09,09,8.60
2020,04,12,09,10,8.60
2020,04,12,09,11,8.60
2020,04,12,09,12,8.60
2020,04,12,09,13,8.60
2020,04,12,09,14,8.70
2020,04,12,09,15,8.70
2020,04,12,09,16,8.70
2020,04,12,09,17,8.70
2020,04,12,09,18,8.70
2020,04,12,09,19,8.80
2020,04,12,09,20,8.70
2020,04,12,09,21,8.80
2020,04,12,09,22,8.80
2020,04,12,09,23,8.80
2020,04,12,09,24,8.80
2020,04,12,09,25,8.80
2020,04,12,09,26,8.80
2020,04,12,09,27,8.90
2020,04,12,09,28,8.90
2020,04,12,09,29,8.90
2020,04,12,09,30,8.90
2020,04,12,09,31,8.90
2020,04,12,09,32,9.00
2020,04,12,09,33,9.00
2020,04,12,09,34,9.10
2020,04,12,09,35,9.10
2020,04,12,09,36,9.20
2020,04,12,09,37,9.30
2020,04,12,09,38,9.30
2020,04,12,09,39,9.40
2020,04,12,09,40,9.50
2020,04,12,09,41,9.50
2020,04,12,09,42,9.60
2020,04,12,09,43,9.60
2020,04,12,09,44,9.70
2020,04,12,09,45,9.80
2020,04,12,09,46,9.80
2020,04,12,09,47,9.90
2020,04,12,09,48,9.90
2020,04,12,09,49,10.00
2020,04,12,09,50,10.00
2020,04,12,09,51,10.10
2020,04,12,09,52,10.10
2020,04,12,09,53,10.10
2020,04,12,09,54,10.10
2020,04,12,09,55,10.20
2020,04,12,09,56,10.20
2020,04,12,09,57,10.30
2020,04,12,09,58,10.30
2020,04,12,09,59,10.40
2020,04,12,10,00,10.40
2020,04,12,10,01,10.50
2020,04,12,10,02,10.50
2020,04,12,10,03,10.60
2020,04,12,10,04,10.70
2020,04,12,10,05,10.70
2020,04,12,10,06,10.70
2020,04,12,10,07,10.70
2020,04,12,10,08,10.70
2020,04,12,10,09,10.80
2020,04,12,10,10,10.80
2020,04,12,10,11,10.90
2020,04,12,10,12,10.90
2020,04,12,10,13,11.00
2020,04,12,10,14,11.10
2020,04,12,10,15,11.10
2020,04,12,10,16,11.20
2020,04,12,10,17,11.30
2020,04,12,10,18,11.30
2020,04,12,10,19,11.40
2020,04,12,10,20,11.40
2020,04,12,10,21,11.50
2020,04,12,10,22,11.50
2020,04,12,10,23,11.60
2020,04,12,10,24,11.60
2020,04,12,10,25,11.60
2020,04,12,10,26,11.60
2020,04,12,10,27,11.60
2020,04,12,10,28,11.60
2020,04,12,10,29,11.70
2020,04,12,10,30,11.80
2020,04,12,10,31,11.80
2020,04,12,10,32,11.80
2020,04,12,10,33,11.80
2020,04,12,10,34,11.90
2020,04,12,10,35,11.90
2020,04,12,10,36,11.90
2020,04,12,10,37,11.90
2020,04,12,10,38,11.90
2020,04,12,10,39,12.00
2020,04,12,10,40,12.10
2020,04,12,10,41,12.10
2020,04,12,10,42,12.10
2020,04,12,10,43,12.10
2020,04,12,10,44,12.00
2020,04,12,10,45,12.00
2020,04,12,10,46,12.10
2020,04,12,10,47,12.10
2020,04,12,10,48,12.10
2020,04,12,10,49,12.10
2020,04,12,10,50,12.10
2020,04,12,10,51,12.10
2020,04,12,10,52,12.10
2020,04,12,10,53,12.10
2020,04,12,10,54,12.10
2020,04,12,10,55,12.10
2020,04,12,10,56,12.10
2020,04,12,10,57,12.00
2020,04,12,10,58,12.00
2020,04,12,10,59,12.00
2020,04,12,11,00,12.10
2020,04,12,11,01,12.10
2020,04,12,11,02,12.10
2020,04,12,11,03,12.10
2020,04,12,11,04,12.20
2020,04,12,11,05,12.20
2020,04,12,11,06,12.30
2020,04,12,11,07,12.40
2020,04,12,11,08,12.50
2020,04,12,11,09,12.60
2020,04,12,11,10,12.60
2020,04,12,11,11,12.70
2020,04,12,11,12,12.70
2020,04,12,11,13,12.60
2020,04,12,11,14,12.60
2020,04,12,11,15,12.70
2020,04,12,11,16,12.70
2020,04,12,11,17,12.70
2020,04,12,11,18,12.70
2020,04,12,11,19,12.70
2020,04,12,11,20,12.70
2020,04,12,11,21,12.70
2020,04,12,11,22,12.70
2020,04,12,11,23,12.80
2020,04,12,11,24,12.90
2020,04,12,11,25,12.90
2020,04,12,11,26,13.00
2020,04,12,11,27,13.00
2020,04,12,11,28,13.00
2020,04,12,11,29,13.00
2020,04,12,11,30,13.00
2020,04,12,11,31,13.10
2020,04,12,11,32,13.10
2020,04,12,11,33,13.10
2020,04,12,11,34,13.10
2020,04,12,11,35,13.10
2020,04,12,11,36,13.20
2020,04,12,11,37,13.20
2020,04,12,11,38,13.20
2020,04,12,11,39,13.20
2020,04,12,11,40,13.20
2020,04,12,11,41,13.00
2020,04,12,11,42,12.90
2020,04,12,11,43,12.80
2020,04,12,11,44,12.70
2020,04,12,11,45,12.60
2020,04,12,11,46,12.60
2020,04,12,11,47,12.60
2020,04,12,11,48,12.60
2020,04,12,11,49,12.60
2020,04,12,11,50,12.70
2020,04,12,11,51,12.80
2020,04,12,11,52,12.80
2020,04,12,11,53,12.90
2020,04,12,11,54,12.90
2020,04,12,11,55,13.00
2020,04,12,11,56,13.00
2020,04,12,11,57,13.10
2020,04,12,11,58,13.10
2020,04,12,11,59,13.10
2020,04,12,12,00,13.20
2020,04,12,12,01,13.20
2020,04,12,12,02,13.30
2020,04,12,12,03,13.30
2020,04,12,12,04,13.30
2020,04,12,12,05,13.40
2020,04,12,12,06,13.40
2020,04,12,12,07,13.40
2020,04,12,12,08,13.40
2020,04,12,12,09,13.40
2020,04,12,12,10,13.50
2020,04,12,12,11,13.50
2020,04,12,12,12,13.60
2020,04,12,12,13,13.50
2020,04,12,12,14,13.50
2020,04,12,12,15,13.40
2020,04,12,12,16,13.40
2020,04,12,12,17,13.40
2020,04,12,12,18,13.40
2020,04,12,12,19,13.40
2020,04,12,12,20,13.40
2020,04,12,12,21,13.40
2020,04,12,12,22,13.40
2020,04,12,12,23,13.40
2020,04,12,12,24,13.40
2020,04,12,12,25,13.50
2020,04,12,12,26,13.50
2020,04,12,12,27,13.60
2020,04,12,12,28,13.70
2020,04,12,12,29,13.70
2020,04,12,12,30,13.80
2020,04,12,12,31,13.70
2020,04,12,12,32,13.60
2020,04,12,12,33,13.40
2020,04,12,12,34,13.40
2020,04,12,12,35,13.30
2020,04,12,12,36,13.30
2020,04,12,12,37,13.30
2020,04,12,12,38,13.30
2020,04,12,12,39,13.40
2020,04,12,12,40,13.50
2020,04,12,12,41,13.50
2020,04,12,12,42,13.40
2020,04,12,12,43,13.40
2020,04,12,12,44,13.40
2020,04,12,12,45,13.30
2020,04,12,12,46,13.30
2020,04,12,12,47,13.30
2020,04,12,12,48,13.30
2020,04,12,12,49,13.30
2020,04,12,12,50,13.30
2020,04,12,12,51,13.30
2020,04,12,12,52,13.30
2020,04,12,12,53,13.30
2020,04,12,12,54,13.40
2020,04,12,12,55,13.40
2020,04,12,12,56,13.50
2020,04,12,12,57,13.50
2020,04,12,12,58,13.60
2020,04,12,12,59,13.60
2020,04,12,13,00,13.70
2020,04,12,13,01,13.70
2020,04,12,13,02,13.80
2020,04,12,13,03,13.70
2020,04,12,13,04,13.70
2020,04,12,13,05,13.70
2020,04,12,13,06,13.70
2020,04,12,13,07,13.80
2020,04,12,13,08,13.90
2020,04,12,13,09,13.90
2020,04,12,13,10,13.90
2020,04,12,13,11,14.00
2020,04,12,13,12,14.00
2020,04,12,13,13,14.00
2020,04,12,13,14,14.00
2020,04,12,13,15,14.10
2020,04,12,13,16,14.10
2020,04,12,13,17,14.20
2020,04,12,13,18,14.20
2020,04,12,13,19,14.20
2020,04,12,13,20,14.30
2020,04,12,13,21,14.30
2020,04,12,13,22,14.30
2020,04,12,13,23,14.30
2020,04,12,13,24,14.30
2020,04,12,13,25,14.30
2020,04,12,13,26,14.20
2020,04,12,13,27,14.20
2020,04,12,13,28,14.10
2020,04,12,13,29,14.10
2020,04,12,13,30,13.90
2020,04,12,13,31,13.90
2020,04,12,13,32,13.80
2020,04,12,13,33,13.80
2020,04,12,13,34,13.80
2020,04,12,13,35,13.70
2020,04,12,13,36,13.70
2020,04,12,13,37,13.70
2020,04,12,13,38,13.70
2020,04,12,13,39,13.60
2020,04,12,13,40,13.60
2020,04,12,13,41,13.60
2020,04,12,13,42,13.60
2020,04,12,13,43,13.60
2020,04,12,13,44,13.50
2020,04,12,13,45,13.50
2020,04,12,13,46,13.40
2020,04,12,13,47,13.30
2020,04,12,13,48,13.40
2020,04,12,13,49,13.40
2020,04,12,13,50,13.50
2020,04,12,13,51,13.40
2020,04,12,13,52,13.40
2020,04,12,13,53,13.40
2020,04,12,13,54,13.40
2020,04,12,13,55,13.40
2020,04,12,13,56,13.50
2020,04,12,13,57,13.60
2020,04,12,13,58,13.60
2020,04,12,13,59,13.70
2020,04,12,14,00,13.80
2020,04,12,14,01,13.90
2020,04,12,14,02,13.90
2020,04,12,14,03,13.90
2020,04,12,14,04,14.00
2020,04,12,14,05,14.00
2020,04,12,14,06,14.10
2020,04,12,14,07,14.10
2020,04,12,14,08,14.10
2020,04,12,14,09,14.10
2020,04,12,14,10,14.20
2020,04,12,14,11,14.20
2020,04,12,14,12,14.20
2020,04,12,14,13,14.20
2020,04,12,14,14,14.20
2020,04,12,14,15,14.20
2020,04,12,14,16,14.20
2020,04,12,14,17,14.10
2020,04,12,14,18,14.10
2020,04,12,14,19,14.10
2020,04,12,14,20,14.10
2020,04,12,14,21,14.10
2020,04,12,14,22,14.10
2020,04,12,14,23,14.20
2020,04,12,14,24,14.30
2020,04,12,14,25,14.20
2020,04,12,14,26,14.10
2020,04,12,14,27,14.10
2020,04,12,14,28,14.10
2020,04,12,14,29,14.00
2020,04,12,14,30,13.90
2020,04,12,14,31,13.80
2020,04,12,14,32,13.80
2020,04,12,14,33,13.80
2020,04,12,14,34,13.70
2020,04,12,14,35,13.80
2020,04,12,14,36,13.80
2020,04,12,14,37,13.80
2020,04,12,14,38,13.80
2020,04,12,14,39,13.90
2020,04,12,14,40,14.10
2020,04,12,14,41,14.20
2020,04,12,14,42,14.30
2020,04,12,14,43,14.30
2020,04,12,14,44,14.20
2020,04,12,14,45,14.10
2020,04,12,14,46,14.10
2020,04,12,14,47,14.10
2020,04,12,14,48,14.20
2020,04,12,14,49,14.30
2020,04,12,14,50,14.30
2020,04,12,14,51,14.30
2020,04,12,14,52,14.40
2020,04,12,14,53,14.30
2020,04,12,14,54,14.30
2020,04,12,14,55,14.30
2020,04,12,14,56,14.40
2020,04,12,14,57,14.50
2020,04,12,14,58,14.50
2020,04,12,14,59,14.50
2020,04,12,15,00,14.40
2020,04,12,15,01,14.40
2020,04,12,15,02,14.40
2020,04,12,15,03,14.40
2020,04,12,15,04,14.40
2020,04,12,15,05,14.40
2020,04,12,15,06,14.40
2020,04,12,15,07,14.30
2020,04,12,15,08,14.20
2020,04,12,15,09,14.10
2020,04,12,15,10,14.10
2020,04,12,15,11,14.20
2020,04,12,15,12,14.30
2020,04,12,15,13,14.30
2020,04,12,15,14,14.30
2020,04,12,15,15,14.30
2020,04,12,15,16,14.30
2020,04,12,15,17,14.30
2020,04,12,15,18,14.30
2020,04,12,15,19,14.30
2020,04,12,15,20,14.30
2020,04,12,15,21,14.30
2020,04,12,15,22,14.30
2020,04,12,15,23,14.30
2020,04,12,15,24,14.30
2020,04,12,15,25,14.30
2020,04,12,15,26,14.30
2020,04,12,15,27,14.30
2020,04,12,15,28,14.30
2020,04,12,15,29,14.30
2020,04,12,15,30,14.40
2020,04,12,15,31,14.40
2020,04,12,15,32,14.40
2020,04,12,15,33,14.50
2020,04,12,15,34,14.50
2020,04,12,15,35,14.50
2020,04,12,15,36,14.60
2020,04,12,15,37,14.60
2020,04,12,15,38,14.60
2020,04,12,15,39,14.70
2020,04,12,15,40,14.70
2020,04,12,15,41,14.80
2020,04,12,15,42,15.00
2020,04,12,15,43,15.10
2020,04,12,15,44,15.20
2020,04,12,15,45,15.20
2020,04,12,15,46,15.30
2020,04,12,15,47,15.30
2020,04,12,15,48,15.30
2020,04,12,15,49,15.30
2020,04,12,15,50,15.30
2020,04,12,15,51,15.30
2020,04,12,15,52,15.30
2020,04,12,15,53,15.20
2020,04,12,15,54,15.20
2020,04,12,15,55,15.20
2020,04,12,15,56,15.10
2020,04,12,15,57,15.10
2020,04,12,15,58,15.10
2020,04,12,15,59,15.10
2020,04,12,16,00,15.10
2020,04,12,16,01,15.10
2020,04,12,16,02,15.20
2020,04,12,16,03,15.20
2020,04,12,16,04,15.30
2020,04,12,16,05,15.30
2020,04,12,16,06,15.30
2020,04,12,16,07,15.30
2020,04,12,16,08,15.20
2020,04,12,16,09,15.10
2020,04,12,16,10,15.10
2020,04,12,16,11,15.10
2020,04,12,16,12,15.00
2020,04,12,16,13,15.00
2020,04,12,16,14,15.00
2020,04,12,16,15,15.00
2020,04,12,16,16,14.90
2020,04,12,16,17,14.90
2020,04,12,16,18,14.90
2020,04,12,16,19,15.00
2020,04,12,16,20,15.10
2020,04,12,16,21,15.10
2020,04,12,16,22,15.20
2020,04,12,16,23,15.10
2020,04,12,16,24,15.20
2020,04,12,16,25,15.20
2020,04,12,16,26,15.20
2020,04,12,16,27,15.30
2020,04,12,16,28,15.30
2020,04,12,16,29,15.30
2020,04,12,16,30,15.20
2020,04,12,16,31,15.20
2020,04,12,16,32,15.20
2020,04,12,16,33,15.20
2020,04,12,16,34,15.20
2020,04,12,16,35,15.10
2020,04,12,16,36,15.10
2020,04,12,16,37,15.10
2020,04,12,16,38,15.10
2020,04,12,16,39,15.20
2020,04,12,16,40,15.20
2020,04,12,16,41,15.30
2020,04,12,16,42,15.30
2020,04,12,16,43,15.40
2020,04,12,16,44,15.40
2020,04,12,16,45,15.40
2020,04,12,16,46,15.40
2020,04,12,16,47,15.30
2020,04,12,16,48,15.30
2020,04,12,16,49,15.30
2020,04,12,16,50,15.30
2020,04,12,16,51,15.30
2020,04,12,16,52,15.30
2020,04,12,16,53,15.20
2020,04,12,16,54,15.10
2020,04,12,16,55,15.00
2020,04,12,16,56,14.90
2020,04,12,16,57,14.80
2020,04,12,16,58,14.80
2020,04,12,16,59,14.80
2020,04,12,17,00,14.80
2020,04,12,17,01,14.80
2020,04,12,17,02,14.80
2020,04,12,17,03,14.80
2020,04,12,17,04,14.90
2020,04,12,17,05,14.80
2020,04,12,17,06,14.80
2020,04,12,17,07,14.80
2020,04,12,17,08,14.80
2020,04,12,17,09,14.80
2020,04,12,17,10,14.80
2020,04,12,17,11,14.70
2020,04,12,17,12,14.70
2020,04,12,17,13,14.70
2020,04,12,17,14,14.70
2020,04,12,17,15,14.70
2020,04,12,17,16,14.70
2020,04,12,17,17,14.70
2020,04,12,17,18,14.60
2020,04,12,17,19,14.60
2020,04,12,17,20,14.60
2020,04,12,17,21,14.50
2020,04,12,17,22,14.50
2020,04,12,17,23,14.50
2020,04,12,17,24,14.50
2020,04,12,17,25,14.50
2020,04,12,17,26,14.50
2020,04,12,17,27,14.50
2020,04,12,17,28,14.50
2020,04,12,17,29,14.50
2020,04,12,17,30,14.40
2020,04,12,17,31,14.40
2020,04,12,17,32,14.40
2020,04,12,17,33,14.30
2020,04,12,17,34,14.30
2020,04,12,17,35,14.30
2020,04,12,17,36,14.30
2020,04,12,17,37,14.30
2020,04,12,17,38,14.30
2020,04,12,17,39,14.30
2020,04,12,17,40,14.30
2020,04,12,17,41,14.30
2020,04,12,17,42,14.40
2020,04,12,17,43,14.40
2020,04,12,17,44,14.40
2020,04,12,17,45,14.30